�v������,���r���O(���x),�����t���O,���r���O(���x),�����t���O,�L�b�`��(���x),�����t���O,��1(���x),�����t���O,��2���x),�����t���O,�O�C���x,�����t���O,�O�C���x,�����t���O,�������x,�����t���O,�C�ۑ�(���x),�����t���O,�C�ۑ�(���x),�����t���O
12/1/2002 0:00,19.1,0,50,0,19.6,0,0,2,18.5,0,11.5,0,70,0,15.7,0,12.1,0,76.8,0
12/1/2002 0:15,19.1,0,49,0,19.5,0,0,2,18.4,0,11.4,0,72,0,15.8,0,12,0,76.8,0
12/1/2002 0:30,18.9,0,49,0,18.9,0,0,2,18.2,0,11.3,0,73,0,15.9,0,11.9,0,76.8,0
12/1/2002 0:45,19,0,48,0,18.8,0,0,2,18.1,0,11.2,0,74,0,16,0,11.8,0,76.8,0
12/1/2002 1:00,18.9,0,49,0,18.9,0,0,2,18.1,0,11.2,0,75,0,16.1,0,11.7,0,76.8,0
12/1/2002 1:15,18.9,0,48,0,18.7,0,0,2,18,0,11.1,0,76,0,16.2,0,11.6,0,75.6,0
12/1/2002 1:30,18.8,0,47,0,18.5,0,0,2,17.9,0,11.1,0,77,0,16.3,0,11.6,0,74.3,0
12/1/2002 1:45,18.7,0,47,0,18.5,0,0,2,17.9,0,11.1,0,79,0,16.4,0,11.5,0,73.1,0
12/1/2002 2:00,18.6,0,47,0,18.6,0,0,2,17.8,0,11.1,0,80,0,16.5,0,11.5,0,71.8,0
12/1/2002 2:15,18.5,0,47,0,18.5,0,0,2,17.8,0,11.1,0,80,0,16.6,0,11.4,0,72.3,0
12/1/2002 2:30,18.4,0,47,0,18.3,0,0,2,17.7,0,11.1,0,81,0,16.7,0,11.3,0,72.8,0
12/1/2002 2:45,18.3,0,47,0,18.1,0,0,2,17.7,0,11.2,0,81,0,16.8,0,11.2,0,73.3,0
12/1/2002 3:00,18.2,0,47,0,18.1,0,0,2,17.7,0,11.1,0,82,0,16.9,0,11.1,0,73.8,0
12/1/2002 3:15,18.2,0,47,0,18.2,0,0,2,17.6,0,11.1,0,81,0,17,0,11,0,74.1,0
12/1/2002 3:30,18.1,0,47,0,18,0,0,2,17.6,0,11.1,0,81,0,17,0,10.9,0,74.3,0
12/1/2002 3:45,18,0,48,0,17.8,0,0,2,17.5,0,11,0,80,0,17.1,0,10.9,0,74.6,0
12/1/2002 4:00,17.9,0,48,0,18,0,0,2,17.5,0,11.1,0,78,0,17.2,0,10.8,0,74.8,0
12/1/2002 4:15,17.9,0,48,0,17.8,0,0,2,17.5,0,11.2,0,78,0,17.3,0,10.8,0,74.6,0
12/1/2002 4:30,17.8,0,48,0,17.8,0,0,2,17.4,0,11.2,0,77,0,17.3,0,10.8,0,74.3,0
12/1/2002 4:45,17.8,0,48,0,17.7,0,0,2,17.4,0,11.1,0,76,0,17.4,0,10.8,0,74.1,0
12/1/2002 5:00,17.6,0,48,0,17.7,0,0,2,17.4,0,11.1,0,76,0,17.5,0,10.8,0,73.8,0
12/1/2002 5:15,17.6,0,48,0,17.6,0,0,2,17.3,0,11,0,76,0,17.6,0,10.9,0,73.3,0
12/1/2002 5:30,17.5,0,48,0,17.6,0,0,2,17.3,0,11.1,0,76,0,17.6,0,11,0,72.8,0
12/1/2002 5:45,17.5,0,47,0,17.5,0,0,2,17.2,0,10.9,0,79,0,17.7,0,11.1,0,72.3,0
12/1/2002 6:00,17.4,0,48,0,17.3,0,0,2,17.2,0,10.6,0,81,0,17.8,0,11.2,0,71.8,0
12/1/2002 6:15,17.4,0,48,0,17.3,0,0,2,17.2,0,10.5,0,81,0,17.8,0,11.2,0,71.3,0
12/1/2002 6:30,17.3,0,48,0,17.3,0,0,2,17.1,0,10.5,0,82,0,17.9,0,11.1,0,70.8,0
12/1/2002 6:45,17.2,0,48,0,17.2,0,0,2,17.1,0,10.4,0,81,0,17.9,0,11.1,0,70.3,0
12/1/2002 7:00,17.2,0,48,0,17.6,0,0,2,17.1,0,10.4,0,80,0,18,0,11.1,0,69.8,0
12/1/2002 7:15,17.3,0,49,0,17.9,0,0,2,17.3,0,10.2,0,81,0,18.1,0,11.1,0,69.6,0
12/1/2002 7:30,17.5,0,49,0,18.2,0,0,2,17.7,0,10.2,0,81,0,18.1,0,11.1,0,69.3,0
12/1/2002 7:45,17.6,0,51,0,23.3,0,0,2,17.9,0,10.2,0,82,0,15.9,0,11.1,0,69.1,0
12/1/2002 8:00,17.6,0,51,0,23,0,0,2,17.7,0,10.3,0,81,0,16,0,11.1,0,68.8,0
12/1/2002 8:15,17.8,0,51,0,20,0,0,2,18.2,0,10.2,0,83,0,16.1,0,10.7,0,71.3,0
12/1/2002 8:30,17.9,0,52,0,19.6,0,0,2,18.5,0,9.7,0,88,0,16.1,0,10.3,0,73.8,0
12/1/2002 8:45,18,0,52,0,19.6,0,0,2,18.8,0,9.6,0,91,0,16.2,0,10,0,76.3,0
12/1/2002 9:00,18,0,52,0,19.6,0,0,2,19.1,0,9.5,0,94,0,16.3,0,9.6,0,78.8,0
12/1/2002 9:15,18.1,0,52,0,19.2,0,0,2,19.2,0,9.5,0,95,0,16.4,0,9.6,0,79.1,0
12/1/2002 9:30,18.1,0,53,0,19.2,0,0,2,19.1,0,9.5,0,94,0,16.5,0,9.6,0,79.3,0
12/1/2002 9:45,18.2,0,53,0,19.1,0,0,2,19,0,9.4,0,94,0,16.6,0,9.6,0,79.6,0
12/1/2002 10:00,18.2,0,53,0,19.3,0,0,2,19.1,0,9.6,0,93,0,16.6,0,9.6,0,79.8,0
12/1/2002 10:15,18.2,0,54,0,19.2,0,0,2,19.2,0,9.6,0,92,0,16.7,0,9.7,0,79.6,0
12/1/2002 10:30,18.2,0,54,0,18.9,0,0,2,19.2,0,9.7,0,91,0,16.8,0,9.8,0,79.3,0
12/1/2002 10:45,18.2,0,54,0,18.7,0,0,2,19.1,0,9.8,0,91,0,14.7,0,9.9,0,79.1,0
12/1/2002 11:00,18.2,0,53,0,18.5,0,0,2,18.9,0,9.9,0,90,0,14.7,0,10,0,78.8,0
12/1/2002 11:15,18.2,0,53,0,18.5,0,0,2,18.6,0,10,0,90,0,14.8,0,9.9,0,78.6,0
12/1/2002 11:30,18.2,0,52,0,18.3,0,0,2,18.5,0,10.2,0,91,0,14.9,0,9.9,0,78.3,0
12/1/2002 11:45,18.1,0,51,0,18.1,0,0,2,18.3,0,10.2,0,89,0,15,0,9.8,0,78.1,0
12/1/2002 12:00,18.1,0,51,0,18.3,0,0,2,18.1,0,10.2,0,88,0,15.1,0,9.8,0,77.8,0
12/1/2002 12:15,18,0,51,0,18.2,0,0,2,18,0,10.2,0,89,0,15.2,0,9.6,0,78.6,0
12/1/2002 12:30,18,0,51,0,18.4,0,0,2,18.1,0,10.2,0,89,0,15.3,0,9.5,0,79.3,0
12/1/2002 12:45,18,0,52,0,18.7,0,0,2,18.4,0,10.2,0,88,0,15.4,0,9.3,0,80.1,0
12/1/2002 13:00,18,0,52,0,18.7,0,0,2,18.4,0,10.2,0,88,0,15.5,0,9.2,0,80.8,0
12/1/2002 13:15,18.1,0,52,0,19.1,0,0,2,18.8,0,10.2,0,87,0,15.6,0,9.2,0,81.1,0
12/1/2002 13:30,18.2,0,53,0,19.2,0,0,2,19.1,0,10.2,0,90,0,15.7,0,9.3,0,81.3,0
12/1/2002 13:45,18.4,0,53,0,21.7,0,0,2,19.2,0,10.2,0,90,0,15.8,0,9.3,0,81.6,0
12/1/2002 14:00,18.4,0,53,0,21.2,0,0,2,19.2,0,10.3,0,88,0,15.9,0,9.4,0,81.8,0
12/1/2002 14:15,18.5,0,55,0,20.7,0,0,2,19.4,0,10.1,0,88,0,15,0,9.4,0,81.8,0
12/1/2002 14:30,18.8,0,56,0,20.9,0,0,2,19.6,0,10.2,0,87,0,15.1,0,9.5,0,81.8,0
12/1/2002 14:45,18.9,0,55,0,20.9,0,0,2,19.7,0,10,0,88,0,15.2,0,9.5,0,81.8,0
12/1/2002 15:00,19,0,54,0,19.8,0,0,2,19.6,0,9.9,0,87,0,15.3,0,9.6,0,81.8,0
12/1/2002 15:15,18.9,0,54,0,19.5,0,0,2,19.2,0,10,0,88,0,15.4,0,9.6,0,81.8,0
12/1/2002 15:30,18.8,0,53,0,20,0,0,2,19.1,0,10,0,86,0,15.5,0,9.5,0,81.8,0
12/1/2002 15:45,19,0,52,0,20.1,0,0,2,19.5,0,9.9,0,87,0,15.6,0,9.5,0,81.8,0
12/1/2002 16:00,19.1,0,51,0,20,0,0,2,19.6,0,9.8,0,86,0,14.8,0,9.5,0,81.8,0
12/1/2002 16:15,19.2,0,52,0,20.2,0,0,2,19.8,0,9.9,0,86,0,14.9,0,9.5,0,81.6,0
12/1/2002 16:30,19.3,0,52,0,20.2,0,0,2,19.9,0,9.7,0,86,0,15,0,9.6,0,81.3,0
12/1/2002 16:45,19.3,0,53,0,19.8,0,0,2,19.9,0,9.7,0,85,0,15.1,0,9.6,0,81.1,0
12/1/2002 17:00,19.4,0,53,0,19.4,0,0,2,19.5,0,9.7,0,86,0,15.2,0,9.7,0,80.8,0
12/1/2002 17:15,19.2,0,53,0,19.9,0,0,2,19.1,0,9.5,0,89,0,15.3,0,9.6,0,81.1,0
12/1/2002 17:30,19.4,0,54,0,20.3,0,0,2,19.4,0,9.5,0,90,0,14.9,0,9.5,0,81.3,0
12/1/2002 17:45,19.6,0,54,0,20.4,0,0,2,19.6,0,9.4,0,90,0,14.9,0,9.5,0,81.6,0
12/1/2002 18:00,19.6,0,54,0,20.8,0,0,2,19.8,0,9.4,0,89,0,14.7,0,9.4,0,81.8,0
12/1/2002 18:15,19.7,0,54,0,20.6,0,0,2,19.9,0,9.5,0,89,0,14.7,0,9.4,0,81.6,0
12/1/2002 18:30,19.7,0,53,0,20.6,0,0,2,20.1,0,9.5,0,89,0,14.8,0,9.4,0,81.3,0
12/1/2002 18:45,19.7,0,52,0,20.8,0,0,2,20.2,0,9.4,0,90,0,14.9,0,9.4,0,81.1,0
12/1/2002 19:00,19.8,0,54,0,24.4,0,0,2,20.2,0,9.4,0,90,0,15.1,0,9.4,0,80.8,0
12/1/2002 19:15,19.8,0,53,0,23.9,0,0,2,20.2,0,9.5,0,89,0,14.9,0,9.4,0,80.6,0
12/1/2002 19:30,19.8,0,52,0,22.1,0,0,2,20.3,0,9.4,0,89,0,14.9,0,9.4,0,80.3,0
12/1/2002 19:45,19.8,0,52,0,21.4,0,0,2,20.3,0,9.4,0,89,0,15.1,0,9.5,0,80.1,0
12/1/2002 20:00,19.8,0,52,0,21.3,0,0,2,20.3,0,9.5,0,89,0,15.2,0,9.5,0,79.8,0
12/1/2002 20:15,19.8,0,51,0,20.6,0,0,2,20.2,0,9.4,0,89,0,15.3,0,9.5,0,79.6,0
12/1/2002 20:30,19.5,0,51,0,20,0,0,2,19.8,0,9.5,0,88,0,15.4,0,9.4,0,79.3,0
12/1/2002 20:45,19.4,0,51,0,19.9,0,0,2,19.4,0,9.4,0,87,0,15.5,0,9.4,0,79.1,0
12/1/2002 21:00,19.4,0,51,0,20,0,0,2,19.1,0,9.5,0,86,0,15.6,0,9.4,0,78.8,0
12/1/2002 21:15,19.3,0,51,0,19.8,0,0,2,18.9,0,9.5,0,86,0,15.8,0,9.3,0,78.8,0
12/1/2002 21:30,19.3,0,52,0,19.6,0,0,2,18.7,0,9.4,0,85,0,15.9,0,9.3,0,78.8,0
12/1/2002 21:45,19.1,0,52,0,19.6,0,0,2,18.6,0,9.4,0,85,0,16,0,9.2,0,78.8,0
12/1/2002 22:00,19.1,0,51,0,19.5,0,0,2,18.4,0,9.4,0,84,0,16.1,0,9.2,0,78.8,0
12/1/2002 22:15,19,0,51,0,19.5,0,0,2,18.3,0,9.2,0,85,0,16.2,0,9.2,0,78.8,0
12/1/2002 22:30,18.9,0,50,0,19.2,0,0,2,18.2,0,9.2,0,85,0,16.3,0,9.1,0,78.8,0
12/1/2002 22:45,18.9,0,50,0,19.1,0,0,2,18.1,0,9.4,0,84,0,16.4,0,9.1,0,78.8,0
12/1/2002 23:00,18.8,0,50,0,19.2,0,0,2,18,0,9.3,0,83,0,16.5,0,9.1,0,78.8,0
12/1/2002 23:15,18.8,0,52,0,19,0,0,2,18,0,9.3,0,83,0,16.6,0,9.1,0,78.3,0
12/1/2002 23:30,18.7,0,53,0,18.9,0,0,2,17.9,0,9.3,0,84,0,16.7,0,9.1,0,77.8,0
12/1/2002 23:45,18.7,0,52,0,18.9,0,0,2,17.9,0,9.4,0,83,0,16.8,0,9.2,0,77.3,0
12/2/2002 0:00,18.6,0,51,0,18.9,0,0,2,17.8,0,9.4,0,83,0,16.8,0,9.2,0,76.8,0
12/2/2002 0:15,18.5,0,51,0,18.4,0,0,2,17.7,0,9.4,0,83,0,16.9,0,9.2,0,76.3,0
12/2/2002 0:30,18.5,0,51,0,18.5,0,0,2,17.6,0,9.3,0,83,0,17,0,9.2,0,75.8,0
12/2/2002 0:45,18.4,0,51,0,18,0,0,2,17.5,0,9.3,0,83,0,17.1,0,9.3,0,75.3,0
12/2/2002 1:00,18.3,0,51,0,18.3,0,0,2,17.5,0,9.2,0,84,0,17.2,0,9.3,0,74.8,0
12/2/2002 1:15,18.2,0,50,0,18.1,0,0,2,17.5,0,9.3,0,84,0,17.3,0,9.3,0,74.1,0
12/2/2002 1:30,18,0,50,0,18.1,0,0,2,17.5,0,9.2,0,83,0,17.3,0,9.3,0,73.3,0
12/2/2002 1:45,17.9,0,50,0,18.1,0,0,2,17.5,0,9.2,0,83,0,17.4,0,9.4,0,72.6,0
12/2/2002 2:00,17.9,0,49,0,18,0,0,2,17.5,0,9.2,0,84,0,17.5,0,9.4,0,71.8,0
12/2/2002 2:15,17.8,0,49,0,18,0,0,2,17.5,0,9.2,0,84,0,17.6,0,9.4,0,71.6,0
12/2/2002 2:30,17.7,0,49,0,17.7,0,0,2,17.5,0,9.2,0,84,0,17.6,0,9.4,0,71.3,0
12/2/2002 2:45,17.6,0,49,0,17.4,0,0,2,17.5,0,9.2,0,84,0,17.7,0,9.4,0,71.1,0
12/2/2002 3:00,17.6,0,49,0,17.5,0,0,2,17.4,0,9,0,85,0,17.8,0,9.4,0,70.8,0
12/2/2002 3:15,17.5,0,49,0,17.4,0,0,2,17.4,0,9,0,85,0,17.8,0,9.2,0,71.8,0
12/2/2002 3:30,17.4,0,49,0,17.3,0,0,2,17.4,0,8.9,0,87,0,17.9,0,9,0,72.8,0
12/2/2002 3:45,17.4,0,49,0,17.2,0,0,2,17.4,0,8.7,0,88,0,17.9,0,8.9,0,73.8,0
12/2/2002 4:00,17.2,0,49,0,17.2,0,0,2,17.3,0,8.6,0,89,0,18,0,8.7,0,74.8,0
12/2/2002 4:15,17.2,0,49,0,17.1,0,0,2,17.3,0,8.5,0,90,0,18.1,0,8.6,0,75.1,0
12/2/2002 4:30,17.1,0,49,0,17.1,0,0,2,17.2,0,8.4,0,89,0,18.1,0,8.4,0,75.3,0
12/2/2002 4:45,17,0,49,0,16.9,0,0,2,17.2,0,8.3,0,90,0,18.2,0,8.3,0,75.6,0
12/2/2002 5:00,17,0,49,0,16.7,0,0,2,17.1,0,8.4,0,90,0,18.2,0,8.2,0,75.8,0
12/2/2002 5:15,16.8,0,49,0,16.6,0,0,2,17.1,0,8.2,0,91,0,18.3,0,8.2,0,75.8,0
12/2/2002 5:30,16.8,0,49,0,16.4,0,0,2,17,0,8.2,0,92,0,18.3,0,8.2,0,75.8,0
12/2/2002 5:45,16.7,0,49,0,16.5,0,0,2,17,0,8.1,0,91,0,18.4,0,8.2,0,75.8,0
12/2/2002 6:00,16.6,0,49,0,16.6,0,0,2,16.9,0,8.2,0,89,0,18.4,0,8.2,0,75.8,0
12/2/2002 6:15,16.7,0,50,0,26.2,0,0,2,17.1,0,8,0,88,0,15.4,0,8.1,0,76.8,0
12/2/2002 6:30,16.9,0,53,0,22.4,0,0,2,17.4,0,8,0,87,0,15.5,0,8.1,0,77.8,0
12/2/2002 6:45,16.8,0,53,0,18.3,0,0,2,17.4,0,7.8,0,88,0,15.6,0,8,0,78.8,0
12/2/2002 7:00,16.7,0,53,0,17.5,0,0,2,17.1,0,7.8,0,88,0,15.7,0,8,0,79.8,0
12/2/2002 7:15,16.6,0,52,0,17.1,0,0,2,16.8,0,7.9,0,87,0,15.8,0,8.1,0,78.8,0
12/2/2002 7:30,16.5,0,52,0,17.2,0,0,2,16.6,0,8.1,0,86,0,15.9,0,8.2,0,77.8,0
12/2/2002 7:45,16.5,0,52,0,16.9,0,0,2,16.1,0,8.5,0,83,0,16,0,8.4,0,76.8,0
12/2/2002 8:00,16.6,0,51,0,16.9,0,0,2,16,0,8.8,0,81,0,16,0,8.5,0,75.8,0
12/2/2002 8:15,16.7,0,51,0,17,0,0,2,16,0,9.3,0,79,0,16.1,0,8.9,0,73.8,0
12/2/2002 8:30,16.9,0,51,0,17.2,0,0,2,15.7,0,9.4,0,80,0,16.2,0,9.3,0,71.8,0
12/2/2002 8:45,17,0,50,0,17.1,0,0,2,15.8,0,9.9,0,78,0,16.3,0,9.8,0,69.8,0
12/2/2002 9:00,17.1,0,51,0,17.1,0,0,2,15.9,0,10,0,76,0,16.3,0,10.2,0,67.8,0
12/2/2002 9:15,17.3,0,51,0,17.4,0,0,2,16.1,0,10.4,0,74,0,16.4,0,10.5,0,66.1,0
12/2/2002 9:30,17.5,0,51,0,17.4,0,0,2,16.2,0,10.6,0,73,0,16.5,0,10.8,0,64.3,0
12/2/2002 9:45,17.6,0,51,0,17.8,0,0,2,16.4,0,11,0,71,0,16.6,0,11.2,0,62.6,0
12/2/2002 10:00,17.8,0,50,0,18.1,0,0,2,16.6,0,11.3,0,72,0,16.6,0,11.5,0,60.8,0
12/2/2002 10:15,18,0,50,0,18.2,0,0,2,16.8,0,11.7,0,70,0,16.7,0,12,0,59,0
12/2/2002 10:30,18.2,0,50,0,18.3,0,0,2,17,0,12.3,0,65,0,16.8,0,12.4,0,57.3,0
12/2/2002 10:45,18.5,0,50,0,18.6,0,0,2,17.2,0,13.3,0,63,0,16.9,0,12.9,0,55.5,0
12/2/2002 11:00,18.6,0,50,0,19,0,0,2,17.4,0,14.2,0,58,0,16.9,0,13.4,0,53.8,0
12/2/2002 11:15,18.9,0,50,0,19.2,0,0,2,17.6,0,15.6,0,54,0,17,0,13.2,0,55.5,0
12/2/2002 11:30,19,0,49,0,19.3,0,0,2,17.8,0,14.9,0,53,0,17.1,0,13.1,0,57.3,0
12/2/2002 11:45,18.8,0,49,0,18.9,0,0,2,17.8,0,14.3,0,56,0,17.2,0,12.9,0,59,0
12/2/2002 12:00,18.9,0,49,0,19,0,0,2,17.7,0,14.3,0,54,0,17.2,0,12.8,0,60.8,0
12/2/2002 12:15,19,0,50,0,19,0,0,2,17.6,0,14.7,0,54,0,17.3,0,12.7,0,60.3,0
12/2/2002 12:30,18.9,0,52,0,18.9,0,0,2,17.5,0,14.5,0,53,0,17.4,0,12.5,0,59.8,0
12/2/2002 12:45,19,0,51,0,19.1,0,0,2,17.5,0,16,0,52,0,17.4,0,12.4,0,59.3,0
12/2/2002 13:00,19.1,0,51,0,19.1,0,0,2,17.6,0,15.4,0,53,0,17.5,0,12.3,0,58.8,0
12/2/2002 13:15,19.1,0,50,0,19.2,0,0,2,17.6,0,15.1,0,54,0,17.6,0,12.4,0,56.8,0
12/2/2002 13:30,19.1,0,50,0,19.1,0,0,2,17.5,0,15.2,0,56,0,17.6,0,12.5,0,54.8,0
12/2/2002 13:45,19.1,0,50,0,19.4,0,0,2,17.6,0,15.5,0,56,0,17.7,0,12.7,0,52.8,0
12/2/2002 14:00,19.3,0,49,0,19.6,0,0,2,17.6,0,14.9,0,54,0,17.8,0,12.8,0,50.8,0
12/2/2002 14:15,19.3,0,49,0,19.4,0,0,2,17.6,0,14.4,0,54,0,17.8,0,12.7,0,52.3,0
12/2/2002 14:30,19.2,0,49,0,19.4,0,0,2,17.6,0,14.2,0,53,0,17.9,0,12.7,0,53.8,0
12/2/2002 14:45,18.9,0,35,0,18.4,0,0,2,17.6,0,14.4,0,53,0,15.5,0,12.6,0,55.3,0
12/2/2002 15:00,18.5,0,35,0,18.4,0,0,2,17.3,0,14.5,0,51,0,15.6,0,12.6,0,56.8,0
12/2/2002 15:15,18.6,0,39,0,18.8,0,0,2,17.2,0,14.3,0,49,0,15.7,0,12.6,0,56.8,0
12/2/2002 15:30,18.6,0,40,0,18.5,0,0,2,17.2,0,14.3,0,49,0,15.8,0,12.6,0,56.8,0
12/2/2002 15:45,18.6,0,42,0,18.4,0,0,2,17.1,0,14.1,0,50,0,15.9,0,12.7,0,56.8,0
12/2/2002 16:00,18.6,0,42,0,18.5,0,0,2,17,0,14.2,0,51,0,16,0,12.7,0,56.8,0
12/2/2002 16:15,18.5,0,43,0,18.5,0,0,2,17,0,13.9,0,52,0,16.1,0,11.8,0,62.8,0
12/2/2002 16:30,18.4,0,43,0,18.6,0,0,2,16.9,0,11.7,0,72,0,16.2,0,11,0,68.8,0
12/2/2002 16:45,18.3,0,44,0,18.4,0,0,2,16.8,0,11.1,0,80,0,16.3,0,10.1,0,74.8,0
12/2/2002 17:00,18.2,0,45,0,18.5,0,0,2,16.8,0,11.2,0,82,0,16.4,0,9.3,0,80.8,0
12/2/2002 17:15,18.2,0,46,0,18.6,0,0,2,16.8,0,11.4,0,81,0,15.2,0,9.6,0,80.3,0
12/2/2002 17:30,18.2,0,49,0,18.5,0,0,2,16.7,0,11.3,0,80,0,15.3,0,9.8,0,79.8,0
12/2/2002 17:45,18.2,0,49,0,18.4,0,0,2,16.6,0,11.4,0,82,0,15.4,0,10.1,0,79.3,0
12/2/2002 18:00,18.1,0,48,0,18.3,0,0,2,16.6,0,11.3,0,80,0,15.5,0,10.4,0,78.8,0
12/2/2002 18:15,18,0,48,0,18.2,0,0,2,16.5,0,11.2,0,81,0,15.6,0,10.5,0,76.8,0
12/2/2002 18:30,18,0,48,0,29.9,0,0,2,16.5,0,11.1,0,80,0,15.7,0,10.7,0,74.8,0
12/2/2002 18:45,18,0,53,0,23,0,0,2,16.4,0,10.7,0,82,0,15.8,0,10.8,0,72.8,0
12/2/2002 19:00,18.2,0,55,0,21.2,0,0,2,16.9,0,10.8,0,83,0,15,0,11,0,70.8,0
12/2/2002 19:15,18.2,0,52,0,20.4,0,0,2,16.9,0,10.4,0,83,0,15.1,0,10.9,0,71.1,0
12/2/2002 19:30,18.2,0,51,0,20,0,0,2,16.9,0,10.5,0,84,0,14.9,0,10.7,0,71.3,0
12/2/2002 19:45,18.2,0,51,0,20.1,0,0,2,17.1,0,10.3,0,84,0,14.9,0,10.6,0,71.6,0
12/2/2002 20:00,18.2,0,52,0,20.2,0,0,2,17.7,0,10.3,0,84,0,15,0,10.5,0,71.8,0
12/2/2002 20:15,18.3,0,52,0,20.2,0,0,2,18.2,0,10.5,0,85,0,14.6,0,10.3,0,72.1,0
12/2/2002 20:30,18.5,0,52,0,20,0,0,2,18.4,0,10.4,0,86,0,14.7,0,10.2,0,72.3,0
12/2/2002 20:45,18.5,0,51,0,20,0,0,2,18.6,0,10.5,0,84,0,14.8,0,10,0,72.6,0
12/2/2002 21:00,18.6,0,51,0,20.2,0,0,2,18.7,0,10.5,0,83,0,14.9,0,9.9,0,72.8,0
12/2/2002 21:15,18.7,0,51,0,20,0,0,2,18.8,0,10.3,0,85,0,14.9,0,9.9,0,72.8,0
12/2/2002 21:30,18.7,0,51,0,19.9,0,0,2,18.9,0,10.1,0,87,0,15,0,9.8,0,72.8,0
12/2/2002 21:45,18.7,0,51,0,19.9,0,0,2,19,0,9.9,0,88,0,15.1,0,9.8,0,72.8,0
12/2/2002 22:00,18.8,0,51,0,19.9,0,0,2,19.1,0,9.7,0,87,0,15.3,0,9.8,0,72.8,0
12/2/2002 22:15,18.9,0,51,0,19.9,0,0,2,19.2,0,9.5,0,89,0,15.4,0,9.8,0,70.8,0
12/2/2002 22:30,18.9,0,51,0,19.8,0,0,2,19.3,0,9.6,0,89,0,15.5,0,9.7,0,68.8,0
12/2/2002 22:45,18.9,0,51,0,19.9,0,0,2,19.4,0,9.5,0,89,0,15.6,0,9.7,0,66.8,0
12/2/2002 23:00,19,0,51,0,20,0,0,2,19.5,0,9.3,0,89,0,15.7,0,9.7,0,64.8,0
12/2/2002 23:15,19,0,54,0,19.9,0,0,2,19.7,0,9.2,0,90,0,15.8,0,9.7,0,65.1,0
12/2/2002 23:30,19,0,55,0,19.9,0,0,2,19.8,0,9.3,0,90,0,14.9,0,9.7,0,65.3,0
12/2/2002 23:45,19,0,54,0,19.9,0,0,2,19.9,0,9.3,0,89,0,14.9,0,9.8,0,65.6,0
12/3/2002 0:00,18.9,0,54,0,18.8,0,0,2,19.7,0,9.2,0,88,0,15,0,9.8,0,65.8,0
12/3/2002 0:15,18.7,0,54,0,18.4,0,0,2,19.3,0,9.2,0,87,0,15.2,0,9.6,0,68.3,0
12/3/2002 0:30,18.6,0,52,0,18.2,0,0,2,18.9,0,8.9,0,87,0,15.3,0,9.3,0,70.8,0
12/3/2002 0:45,18.4,0,51,0,18.1,0,0,2,18.7,0,8.7,0,88,0,15.4,0,9.1,0,73.3,0
12/3/2002 1:00,18.3,0,51,0,18.3,0,0,2,18.5,0,8.5,0,90,0,15.5,0,8.9,0,75.8,0
12/3/2002 1:15,18.1,0,50,0,18.2,0,0,2,18.4,0,8.4,0,90,0,15.6,0,8.8,0,76.3,0
12/3/2002 1:30,18,0,50,0,18.2,0,0,2,18.2,0,8.2,0,90,0,15.7,0,8.7,0,76.8,0
12/3/2002 1:45,17.9,0,50,0,18,0,0,2,18.2,0,8.1,0,90,0,15.8,0,8.6,0,77.3,0
12/3/2002 2:00,17.8,0,50,0,17.8,0,0,2,18,0,8,0,90,0,15.9,0,8.5,0,77.8,0
12/3/2002 2:15,17.6,0,50,0,17.6,0,0,2,17.9,0,7.9,0,91,0,16,0,8.4,0,78.1,0
12/3/2002 2:30,17.5,0,50,0,17.6,0,0,2,17.9,0,7.9,0,90,0,16,0,8.3,0,78.3,0
12/3/2002 2:45,17.4,0,50,0,17.7,0,0,2,17.8,0,7.8,0,91,0,16.1,0,8.3,0,78.6,0
12/3/2002 3:00,17.3,0,50,0,17.4,0,0,2,17.7,0,7.6,0,92,0,16.2,0,8.2,0,78.8,0
12/3/2002 3:15,17.2,0,50,0,17.2,0,0,2,17.7,0,7.6,0,92,0,16.3,0,8,0,78.3,0
12/3/2002 3:30,17.1,0,50,0,17.1,0,0,2,17.6,0,7.4,0,92,0,16.4,0,7.9,0,77.8,0
12/3/2002 3:45,17,0,50,0,17.1,0,0,2,17.6,0,7.5,0,91,0,16.5,0,7.7,0,77.3,0
12/3/2002 4:00,16.9,0,49,0,16.8,0,0,2,17.5,0,7.5,0,90,0,16.6,0,7.6,0,76.8,0
12/3/2002 4:15,16.8,0,49,0,16.8,0,0,2,17.5,0,7.3,0,90,0,16.6,0,7.5,0,76.1,0
12/3/2002 4:30,16.7,0,49,0,16.6,0,0,2,17.4,0,7.4,0,89,0,16.7,0,7.4,0,75.3,0
12/3/2002 4:45,16.6,0,49,0,16.5,0,0,2,17.3,0,7.2,0,88,0,16.8,0,7.4,0,74.6,0
12/3/2002 5:00,16.5,0,49,0,16.5,0,0,2,17.2,0,7.4,0,89,0,16.9,0,7.3,0,73.8,0
12/3/2002 5:15,16.5,0,49,0,16.3,0,0,2,17.1,0,7.5,0,89,0,16.9,0,7.3,0,74.1,0
12/3/2002 5:30,16.4,0,49,0,16.2,0,0,2,17,0,7.4,0,90,0,17,0,7.2,0,74.3,0
12/3/2002 5:45,16.3,0,49,0,16,0,0,2,17,0,7.5,0,90,0,17,0,7.2,0,74.6,0
12/3/2002 6:00,16.3,0,49,0,15.9,0,0,2,16.9,0,7.4,0,91,0,17.1,0,7.2,0,74.8,0
12/3/2002 6:15,16.4,0,50,0,27.1,0,0,2,17.1,0,7.3,0,91,0,14.6,0,7.2,0,74.8,0
12/3/2002 6:30,16.6,0,54,0,22.3,0,0,2,17.5,0,7.2,0,91,0,14.7,0,7.2,0,74.8,0
12/3/2002 6:45,16.6,0,54,0,18.4,0,0,2,17.6,0,7.1,0,91,0,14.8,0,7.3,0,74.8,0
12/3/2002 7:00,16.4,0,53,0,17.3,0,0,2,17.1,0,7.1,0,91,0,14.8,0,7.3,0,74.8,0
12/3/2002 7:15,16.4,0,53,0,16.8,0,0,2,16.8,0,7.1,0,91,0,14.9,0,7.4,0,73.3,0
12/3/2002 7:30,16.3,0,53,0,16.5,0,0,2,16.4,0,7.3,0,91,0,15,0,7.6,0,71.8,0
12/3/2002 7:45,16.3,0,52,0,16.5,0,0,2,16.2,0,7.3,0,90,0,15.1,0,7.7,0,70.3,0
12/3/2002 8:00,16.2,0,51,0,16.6,0,0,2,16,0,7.5,0,89,0,15.2,0,7.9,0,68.8,0
12/3/2002 8:15,16.2,0,51,0,16.5,0,0,2,15.9,0,7.8,0,89,0,15.3,0,8.1,0,68.1,0
12/3/2002 8:30,16.3,0,51,0,16.5,0,0,2,15.8,0,8.1,0,85,0,15.4,0,8.2,0,67.3,0
12/3/2002 8:45,16.4,0,51,0,16.3,0,0,2,15.8,0,8.7,0,82,0,15.4,0,8.4,0,66.6,0
12/3/2002 9:00,16.5,0,49,0,16.6,0,0,2,15.8,0,9.4,0,77,0,15.5,0,8.6,0,65.8,0
12/3/2002 9:15,16.8,0,49,0,17,0,0,2,15.8,0,9.8,0,73,0,15.6,0,9.1,0,64.1,0
12/3/2002 9:30,17,0,49,0,17.2,0,0,2,15.8,0,10.1,0,69,0,15.7,0,9.5,0,62.3,0
12/3/2002 9:45,17.2,0,49,0,17.4,0,0,2,15.8,0,10.5,0,68,0,14.6,0,10,0,60.6,0
12/3/2002 10:00,17.4,0,48,0,17.5,0,0,2,15.9,0,10.9,0,66,0,14.6,0,10.5,0,58.8,0
12/3/2002 10:15,17.4,0,47,0,17.4,0,0,2,16,0,11.2,0,65,0,14.7,0,10.8,0,58,0
12/3/2002 10:30,17.1,0,43,0,17.1,0,0,2,16.2,0,12,0,63,0,14.8,0,11.1,0,57.3,0
12/3/2002 10:45,17.1,0,43,0,17.1,0,0,2,16.4,0,12.8,0,59,0,14.9,0,11.5,0,56.5,0
12/3/2002 11:00,17.2,0,43,0,17.3,0,0,2,16.6,0,14,0,53,0,14.9,0,11.8,0,55.8,0
12/3/2002 11:15,17.4,0,42,0,17.4,0,0,2,16.8,0,14.9,0,51,0,15,0,12.1,0,55,0
12/3/2002 11:30,17.3,0,40,0,17.3,0,0,2,16.8,0,14,0,54,0,15.1,0,12.5,0,54.3,0
12/3/2002 11:45,17.3,0,39,0,17.1,0,0,2,16.7,0,14.7,0,53,0,15.2,0,12.8,0,53.5,0
12/3/2002 12:00,17.3,0,39,0,17.1,0,0,2,16.7,0,14.4,0,53,0,15.3,0,13.2,0,52.8,0
12/3/2002 12:15,17.5,0,41,0,17.7,0,0,2,16.8,0,14.8,0,52,0,15.4,0,13.2,0,53.3,0
12/3/2002 12:30,17.9,0,43,0,17.8,0,0,2,17,0,14.1,0,54,0,15.5,0,13.1,0,53.8,0
12/3/2002 12:45,17.9,0,44,0,18,0,0,2,17.1,0,14.6,0,55,0,15.6,0,13.1,0,54.3,0
12/3/2002 13:00,17.9,0,47,0,17.8,0,0,2,17.1,0,14.5,0,54,0,15.7,0,13.1,0,54.8,0
12/3/2002 13:15,18,0,47,0,18,0,0,2,17.1,0,14.6,0,55,0,15.7,0,13.3,0,54.3,0
12/3/2002 13:30,18,0,47,0,17.9,0,0,2,17.1,0,14.4,0,54,0,15.8,0,13.4,0,53.8,0
12/3/2002 13:45,18,0,48,0,17.8,0,0,2,17,0,14.6,0,54,0,15.9,0,13.6,0,53.3,0
12/3/2002 14:00,18,0,47,0,18,0,0,2,17.1,0,14.7,0,54,0,16,0,13.8,0,52.8,0
12/3/2002 14:15,18.2,0,47,0,18.3,0,0,2,17.1,0,15,0,52,0,16.1,0,13.8,0,53,0
12/3/2002 14:30,18.3,0,47,0,18.5,0,0,2,17.2,0,15.7,0,51,0,16.2,0,13.7,0,53.3,0
12/3/2002 14:45,18.6,0,46,0,18.4,0,0,2,17.4,0,15.5,0,51,0,16.3,0,13.7,0,53.5,0
12/3/2002 15:00,18.5,0,46,0,18.6,0,0,2,17.4,0,15.1,0,53,0,16.3,0,13.7,0,53.8,0
12/3/2002 15:15,18.3,0,47,0,18.5,0,0,2,17.4,0,14.8,0,55,0,16.4,0,13.5,0,54.8,0
12/3/2002 15:30,18.3,0,47,0,18.2,0,0,2,17.3,0,14.5,0,55,0,16.5,0,13.4,0,55.8,0
12/3/2002 15:45,18.3,0,46,0,18.2,0,0,2,17.2,0,14.5,0,55,0,16.6,0,13.2,0,56.8,0
12/3/2002 16:00,18.2,0,47,0,18.1,0,0,2,17.1,0,14.2,0,56,0,16.7,0,13.1,0,57.8,0
12/3/2002 16:15,18.1,0,47,0,17.9,0,0,2,17,0,14.2,0,58,0,16.8,0,12.9,0,58.8,0
12/3/2002 16:30,18,0,47,0,17.9,0,0,2,16.9,0,13.8,0,59,0,16.9,0,12.7,0,59.8,0
12/3/2002 16:45,17.9,0,47,0,17.7,0,0,2,16.8,0,13.6,0,62,0,16.9,0,12.6,0,60.8,0
12/3/2002 17:00,17.7,0,47,0,17.9,0,0,2,16.8,0,13.1,0,64,0,17,0,12.4,0,61.8,0
12/3/2002 17:15,17.6,0,47,0,17.6,0,0,2,16.7,0,12.9,0,67,0,17.1,0,12.3,0,62.3,0
12/3/2002 17:30,17.5,0,47,0,17.8,0,0,2,16.6,0,12.7,0,68,0,17.2,0,12.1,0,62.8,0
12/3/2002 17:45,17.5,0,49,0,17.6,0,0,2,16.6,0,12.6,0,68,0,17.2,0,12,0,63.3,0
12/3/2002 18:00,17.4,0,49,0,17.4,0,0,2,16.5,0,12.5,0,68,0,17.3,0,11.9,0,63.8,0
12/3/2002 18:15,17.4,0,49,0,17.4,0,0,2,16.5,0,12.4,0,69,0,17.4,0,11.9,0,64.3,0
12/3/2002 18:30,17.3,0,49,0,17.5,0,0,2,16.4,0,12.2,0,70,0,17.4,0,11.8,0,64.8,0
12/3/2002 18:45,17.3,0,48,0,17.5,0,0,2,16.3,0,12.1,0,72,0,17.5,0,11.8,0,65.3,0
12/3/2002 19:00,17.3,0,48,0,17.6,0,0,2,16.3,0,12.1,0,70,0,17.6,0,11.8,0,65.8,0
12/3/2002 19:15,17.4,0,49,0,22.7,0,0,2,16.2,0,12,0,66,0,17.6,0,11.6,0,65.3,0
12/3/2002 19:30,17.5,0,51,0,20.4,0,0,2,16.2,0,12,0,66,0,17.7,0,11.5,0,64.8,0
12/3/2002 19:45,17.5,0,50,0,19.2,0,0,2,16.1,0,11.8,0,68,0,17.8,0,11.3,0,64.3,0
12/3/2002 20:00,17.5,0,50,0,18.9,0,0,2,16.1,0,11.6,0,69,0,17.8,0,11.2,0,63.8,0
12/3/2002 20:15,17.5,0,49,0,19,0,0,2,16,0,11.5,0,70,0,17.9,0,11.2,0,64.3,0
12/3/2002 20:30,17.4,0,49,0,18.8,0,0,2,16,0,11.2,0,70,0,17.9,0,11.2,0,64.8,0
12/3/2002 20:45,17.4,0,49,0,18.6,0,0,2,15.9,0,11.2,0,70,0,18,0,11.2,0,65.3,0
12/3/2002 21:00,17.4,0,49,0,18.4,0,0,2,15.9,0,11.2,0,70,0,18,0,11.2,0,65.8,0
12/3/2002 21:15,17.4,0,49,0,18.3,0,0,2,15.9,0,11,0,70,0,18.1,0,11.1,0,66.3,0
12/3/2002 21:30,17.4,0,49,0,18.4,0,0,2,15.8,0,10.9,0,71,0,18.1,0,10.9,0,66.8,0
12/3/2002 21:45,17.4,0,49,0,18.3,0,0,2,15.8,0,10.9,0,71,0,18.2,0,10.8,0,67.3,0
12/3/2002 22:00,17.4,0,49,0,18.1,0,0,2,15.7,0,10.9,0,71,0,18.2,0,10.7,0,67.8,0
12/3/2002 22:15,17.4,0,49,0,18,0,0,2,15.7,0,10.9,0,71,0,18.3,0,10.6,0,67.8,0
12/3/2002 22:30,17.4,0,49,0,18.2,0,0,2,15.7,0,10.8,0,71,0,18.3,0,10.5,0,67.8,0
12/3/2002 22:45,17.5,0,48,0,18.4,0,0,2,16.3,0,10.9,0,70,0,18.4,0,10.4,0,67.8,0
12/3/2002 23:00,17.8,0,51,0,18.5,0,0,2,16.8,0,10.9,0,69,0,18.4,0,10.3,0,67.8,0
12/3/2002 23:15,17.8,0,51,0,18.6,0,0,2,17.3,0,10.9,0,69,0,18.5,0,10.3,0,68.1,0
12/3/2002 23:30,17.8,0,51,0,18.3,0,0,2,17.5,0,11,0,68,0,18.5,0,10.3,0,68.3,0
12/3/2002 23:45,17.9,0,50,0,18.5,0,0,2,17.8,0,10.8,0,68,0,18.5,0,10.3,0,68.6,0
12/4/2002 0:00,18,0,50,0,18.4,0,0,2,17.9,0,10.9,0,67,0,18.6,0,10.3,0,68.8,0
12/4/2002 0:15,17.9,0,50,0,17.9,0,0,2,18.1,0,10.9,0,68,0,18.6,0,10.3,0,68.3,0
12/4/2002 0:30,17.8,0,49,0,17.9,0,0,2,17.7,0,10.8,0,68,0,18.7,0,10.2,0,67.8,0
12/4/2002 0:45,17.6,0,49,0,17.8,0,0,2,17.4,0,10.7,0,68,0,18.7,0,10.2,0,67.3,0
12/4/2002 1:00,17.5,0,49,0,17.6,0,0,2,17.2,0,10.6,0,68,0,18.8,0,10.2,0,66.8,0
12/4/2002 1:15,17.4,0,49,0,17.5,0,0,2,17.1,0,10.6,0,68,0,18.8,0,10.2,0,66.3,0
12/4/2002 1:30,17.2,0,49,0,17.6,0,0,2,17,0,10.6,0,69,0,18.8,0,10.2,0,65.8,0
12/4/2002 1:45,17.1,0,49,0,17.5,0,0,2,17,0,10.6,0,69,0,18.9,0,10.2,0,65.3,0
12/4/2002 2:00,17.1,0,49,0,17.3,0,0,2,16.9,0,10.6,0,70,0,18.9,0,10.2,0,64.8,0
12/4/2002 2:15,17,0,49,0,17.3,0,0,2,16.9,0,10.6,0,69,0,18.9,0,10.2,0,64.3,0
12/4/2002 2:30,16.9,0,49,0,17.1,0,0,2,16.9,0,10.6,0,70,0,19,0,10.2,0,63.8,0
12/4/2002 2:45,16.8,0,49,0,17.1,0,0,2,16.9,0,10.5,0,70,0,19,0,10.2,0,63.3,0
12/4/2002 3:00,16.8,0,49,0,17,0,0,2,16.8,0,10.4,0,70,0,19,0,10.2,0,62.8,0
12/4/2002 3:15,16.7,0,49,0,16.9,0,0,2,16.8,0,10.4,0,71,0,19.1,0,10.1,0,63.8,0
12/4/2002 3:30,16.6,0,49,0,16.8,0,0,2,16.7,0,10.2,0,73,0,19.1,0,10,0,64.8,0
12/4/2002 3:45,16.5,0,49,0,16.7,0,0,2,16.7,0,10,0,76,0,19.1,0,9.9,0,65.8,0
12/4/2002 4:00,16.5,0,49,0,16.7,0,0,2,16.7,0,10,0,78,0,19.2,0,9.8,0,66.8,0
12/4/2002 4:15,16.4,0,49,0,16.5,0,0,2,16.7,0,10,0,80,0,19.2,0,9.7,0,68.1,0